• In Hungary
  • List of Countries
  • For 7 days
  • Water Temperature
  • Satellite Maps
  • Weather Map
  • News
  • Weather Widgets
  • user-avatar
    Login

    Hourly Weather Stara Zagora

    Today, 23 October, Monday

    Time Temperature Precipitation Wind Pressure Humidity
    00:00 +14°C° 0 mm 3 mps 740 mmHg 66%
    01:00 +14°C° 0 mm 3 mps 740 mmHg 69%
    02:00 +13°C° 0 mm 3 mps 739 mmHg 70%
    03:00 +13°C° 0 mm 3 mps 739 mmHg 72%
    04:00 +13°C° 0 mm 2 mps 738 mmHg 74%
    05:00 +13°C° 0 mm 2 mps 738 mmHg 76%
    06:00 +12°C° 0 mm 3 mps 737 mmHg 77%
    07:00 +13°C° 0 mm 3 mps 737 mmHg 78%
    08:00 +13°C° 0 mm 3 mps 737 mmHg 77%
    09:00 +14°C° 0 mm 4 mps 736 mmHg 73%
    10:00 +17°C° 0 mm 4 mps 736 mmHg 68%
    11:00 +18°C° 0 mm 4 mps 735 mmHg 63%
    12:00 +19°C° 0 mm 4 mps 735 mmHg 59%
    13:00 +20°C° 0 mm 4 mps 734 mmHg 55%
    14:00 +20°C° 0 mm 3 mps 734 mmHg 57%
    15:00 +20°C° 0.4 mm 3 mps 734 mmHg 61%
    16:00 +19°C° 0.4 mm 2 mps 733 mmHg 65%
    17:00 +19°C° 0.4 mm 2 mps 733 mmHg 68%
    18:00 +18°C° 1 mm 2 mps 733 mmHg 72%
    19:00 +18°C° 1 mm 2 mps 732 mmHg 76%
    20:00 +17°C° 1 mm 2 mps 732 mmHg 79%
    21:00 +17°C° 1.6 mm 2 mps 732 mmHg 81%
    22:00 +16°C° 1.6 mm 2 mps 732 mmHg 83%
    23:00 +16°C° 1.6 mm 2 mps 731 mmHg 85%

    Tomorrow, 24 October, Tuesday

    Time Temperature Precipitation Wind Pressure Humidity
    00:00 +16°C° 1.6 mm 2 mps 731 mmHg 85%
    01:00 +16°C° 1.6 mm 2 mps 731 mmHg 86%
    02:00 +14°C° 1.6 mm 3 mps 731 mmHg 87%
    03:00 +14°C° 2.4 mm 3 mps 730 mmHg 87%
    04:00 +14°C° 2.4 mm 3 mps 730 mmHg 88%
    05:00 +13°C° 2.4 mm 4 mps 730 mmHg 88%
    06:00 +13°C° 1.2 mm 3 mps 730 mmHg 87%
    07:00 +13°C° 1.2 mm 3 mps 730 mmHg 86%
    08:00 +13°C° 1.2 mm 3 mps 731 mmHg 85%
    09:00 +14°C° 0.6 mm 3 mps 731 mmHg 82%
    10:00 +15°C° 0.6 mm 2 mps 731 mmHg 80%
    11:00 +16°C° 0.6 mm 2 mps 732 mmHg 77%
    12:00 +16°C° 0.9 mm 2 mps 732 mmHg 74%
    13:00 +17°C° 0.9 mm 2 mps 732 mmHg 70%
    14:00 +18°C° 0.9 mm 3 mps 733 mmHg 67%
    15:00 +17°C° 0.7 mm 2 mps 733 mmHg 70%
    16:00 +17°C° 0.7 mm 2 mps 733 mmHg 72%
    17:00 +16°C° 0.7 mm 2 mps 734 mmHg 75%
    18:00 +16°C° 0.6 mm 2 mps 735 mmHg 78%
    19:00 +15°C° 0.6 mm 2 mps 735 mmHg 81%
    20:00 +14°C° 0.6 mm 2 mps 736 mmHg 83%
    21:00 +14°C° 0.5 mm 2 mps 737 mmHg 84%
    22:00 +14°C° 0.5 mm 2 mps 738 mmHg 85%
    23:00 +13°C° 0.5 mm 3 mps 738 mmHg 86%

    Day after tomorrow, 25 October, Wednesday

    Time Temperature Precipitation Wind Pressure Humidity
    00:00 +12°C° 0.5 mm 3 mps 739 mmHg 87%
    01:00 +12°C° 0.5 mm 3 mps 739 mmHg 87%
    02:00 +12°C° 0.5 mm 3 mps 740 mmHg 88%
    03:00 +12°C° 1.4 mm 3 mps 740 mmHg 88%
    04:00 +12°C° 1.4 mm 3 mps 741 mmHg 88%
    05:00 +12°C° 1.4 mm 4 mps 741 mmHg 88%
    06:00 +11°C° 2.2 mm 4 mps 742 mmHg 88%
    07:00 +11°C° 2.2 mm 4 mps 743 mmHg 88%
    08:00 +10°C° 2.2 mm 4 mps 743 mmHg 88%
    09:00 +8°C° 3.2 mm 4 mps 744 mmHg 88%
    10:00 +8°C° 3.2 mm 4 mps 745 mmHg 88%
    11:00 +7°C° 3.2 mm 4 mps 746 mmHg 88%
    12:00 +7°C° 1.7 mm 4 mps 746 mmHg 87%
    13:00 +7°C° 1.7 mm 4 mps 746 mmHg 86%
    14:00 +7°C° 1.7 mm 4 mps 747 mmHg 85%
    15:00 +7°C° 0.9 mm 4 mps 747 mmHg 84%
    16:00 +7°C° 0.9 mm 4 mps 747 mmHg 84%
    17:00 +7°C° 0.9 mm 4 mps 748 mmHg 84%
    18:00 +8°C° 0.2 mm 3 mps 748 mmHg 83%
    19:00 +8°C° 0.2 mm 3 mps 749 mmHg 83%
    20:00 +8°C° 0.2 mm 3 mps 749 mmHg 83%
    21:00 +8°C° 0.1 mm 3 mps 750 mmHg 82%
    22:00 +8°C° 0.1 mm 3 mps 750 mmHg 82%
    23:00 +8°C° 0.1 mm 3 mps 750 mmHg 82%

    26 October, Thursday

    Time Temperature Precipitation Wind Pressure Humidity
    00:00 +8°C° 0 mm 2 mps 750 mmHg 83%
    01:00 +7°C° 0 mm 2 mps 750 mmHg 83%
    02:00 +7°C° 0 mm 2 mps 750 mmHg 83%
    03:00 +7°C° 0 mm 2 mps 750 mmHg 83%
    04:00 +7°C° 0 mm 2 mps 750 mmHg 83%
    05:00 +7°C° 0 mm 2 mps 750 mmHg 83%
    06:00 +7°C° 0 mm 2 mps 751 mmHg 81%
    07:00 +9°C° 0 mm 1 mps 751 mmHg 79%
    08:00 +9°C° 0 mm 1 mps 751 mmHg 77%
    09:00 +11°C° 0 mm 1 mps 751 mmHg 71%
    10:00 +13°C° 0 mm 1 mps 751 mmHg 66%
    11:00 +14°C° 0 mm 1 mps 751 mmHg 60%
    12:00 +15°C° 0 mm 1 mps 750 mmHg 59%
    13:00 +16°C° 0 mm 1 mps 750 mmHg 57%
    14:00 +18°C° 0 mm 1 mps 750 mmHg 55%
    15:00 +16°C° 0 mm 1 mps 749 mmHg 59%
    16:00 +15°C° 0 mm 1 mps 749 mmHg 64%
    17:00 +14°C° 0 mm 1 mps 749 mmHg 68%
    18:00 +14°C° 0 mm 1 mps 749 mmHg 70%
    19:00 +13°C° 0 mm 1 mps 749 mmHg 73%
    20:00 +12°C° 0 mm 1 mps 749 mmHg 75%
    21:00 +12°C° 0 mm 1 mps 749 mmHg 76%
    22:00 +12°C° 0 mm 1 mps 749 mmHg 77%
    23:00 +11°C° 0 mm 1 mps 749 mmHg 77%

    27 October, Friday

    Time Temperature Precipitation Wind Pressure Humidity
    00:00 +11°C° 0 mm 1 mps 748 mmHg 78%
    01:00 +11°C° 0 mm 1 mps 748 mmHg 78%
    02:00 +11°C° 0 mm 1 mps 748 mmHg 78%
    03:00 +11°C° 0 mm 1 mps 747 mmHg 78%
    04:00 +10°C° 0 mm 1 mps 747 mmHg 77%
    05:00 +10°C° 0 mm 1 mps 747 mmHg 77%
    06:00 +11°C° 0 mm 1 mps 747 mmHg 75%
    07:00 +11°C° 0 mm 1 mps 747 mmHg 73%
    08:00 +12°C° 0 mm 1 mps 746 mmHg 72%
    09:00 +14°C° 0 mm 1 mps 746 mmHg 65%
    10:00 +15°C° 0 mm 1 mps 746 mmHg 58%
    11:00 +18°C° 0 mm 1 mps 746 mmHg 52%
    12:00 +19°C° 0 mm 1 mps 745 mmHg 49%
    13:00 +20°C° 0 mm 1 mps 744 mmHg 47%
    14:00 +19°C° 0 mm 2 mps 743 mmHg 45%
    15:00 +19°C° 0 mm 1 mps 743 mmHg 49%
    16:00 +18°C° 0 mm 1 mps 742 mmHg 53%
    17:00 +16°C° 0 mm 1 mps 741 mmHg 58%
    18:00 +16°C° 0 mm 1 mps 741 mmHg 59%
    19:00 +15°C° 0 mm 1 mps 741 mmHg 61%
    20:00 +15°C° 0 mm 1 mps 741 mmHg 62%
    21:00 +14°C° 0 mm 1 mps 740 mmHg 63%
    22:00 +14°C° 0 mm 1 mps 740 mmHg 63%
    23:00 +14°C° 0 mm 1 mps 739 mmHg 64%

    28 October, Saturday

    Time Temperature Precipitation Wind Pressure Humidity
    00:00 +14°C° 0 mm 1 mps 739 mmHg 64%
    01:00 +13°C° 0 mm 1 mps 738 mmHg 65%
    02:00 +13°C° 0 mm 1 mps 738 mmHg 66%
    03:00 +13°C° 0 mm 1 mps 737 mmHg 66%
    04:00 +13°C° 0 mm 1 mps 737 mmHg 67%
    05:00 +13°C° 0 mm 1 mps 736 mmHg 67%
    06:00 +13°C° 0 mm 1 mps 736 mmHg 66%
    07:00 +13°C° 0 mm 1 mps 736 mmHg 66%
    08:00 +14°C° 0 mm 1 mps 736 mmHg 65%
    09:00 +15°C° 0 mm 2 mps 736 mmHg 63%
    10:00 +16°C° 0 mm 3 mps 737 mmHg 60%
    11:00 +17°C° 0 mm 4 mps 737 mmHg 58%
    12:00 +15°C° 0.1 mm 4 mps 737 mmHg 58%
    13:00 +15°C° 0.1 mm 5 mps 737 mmHg 59%
    14:00 +14°C° 0.1 mm 5 mps 737 mmHg 60%
    15:00 +13°C° 0.1 mm 4 mps 737 mmHg 62%
    16:00 +13°C° 0.1 mm 4 mps 737 mmHg 64%
    17:00 +12°C° 0.1 mm 3 mps 737 mmHg 66%
    18:00 +11°C° 0 mm 3 mps 738 mmHg 68%
    19:00 +10°C° 0 mm 2 mps 738 mmHg 69%
    20:00 +10°C° 0 mm 2 mps 738 mmHg 71%
    21:00 +9°C° 0 mm 2 mps 738 mmHg 71%
    22:00 +9°C° 0 mm 2 mps 739 mmHg 72%
    23:00 +10°C° 0 mm 1 mps 739 mmHg 73%

    29 October, Sunday

    Time Temperature Precipitation Wind Pressure Humidity
    00:00 +9°C° 0.1 mm 1 mps 739 mmHg 73%
    01:00 +9°C° 0.1 mm 1 mps 738 mmHg 74%
    02:00 +9°C° 0.1 mm 1 mps 738 mmHg 75%
    03:00 +9°C° 0.1 mm 1 mps 738 mmHg 75%
    04:00 +9°C° 0.1 mm 1 mps 738 mmHg 74%
    05:00 +9°C° 0.1 mm 1 mps 738 mmHg 74%
    06:00 +9°C° 0.2 mm 1 mps 738 mmHg 74%
    07:00 +9°C° 0.2 mm 1 mps 738 mmHg 74%
    08:00 +9°C° 0.2 mm 1 mps 738 mmHg 74%
    09:00 +9°C° 0.4 mm 2 mps 737 mmHg 73%
    10:00 +9°C° 0.4 mm 2 mps 737 mmHg 72%
    11:00 +9°C° 0.4 mm 2 mps 737 mmHg 70%
    12:00 +9°C° 0.4 mm 2 mps 736 mmHg 70%
    13:00 +9°C° 0.4 mm 3 mps 736 mmHg 69%
    14:00 +10°C° 0.4 mm 3 mps 735 mmHg 68%
    15:00 +9°C° 0.3 mm 3 mps 735 mmHg 69%
    16:00 +9°C° 0.3 mm 3 mps 735 mmHg 70%
    17:00 +9°C° 0.3 mm 2 mps 734 mmHg 71%
    18:00 +9°C° 0.1 mm 3 mps 735 mmHg 72%
    19:00 +9°C° 0.1 mm 3 mps 735 mmHg 72%
    20:00 +7°C° 0.1 mm 4 mps 735 mmHg 72%
    21:00 +7°C° 0 mm 4 mps 735 mmHg 73%
    22:00 +7°C° 0 mm 4 mps 735 mmHg 73%
    23:00 +7°C° 0 mm 4 mps 735 mmHg 73%
    Show more